Location: Poughquag
(41.6090°N, 73.6820°W)
Time: 15:58:13
(UTC-04:00)

A-11 Canister half - Visible Passes

Search period start: 07 October 2024 00:00
Search period end: 17 October 2024 00:00
Orbit: 1524 x 1684 km, 47.3° (Epoch: 07 October)

Date Brightness Start Highest point End Pass type
(mag) Time Alt. Az. Time Alt. Az. Time Alt. Az.
08 Oct 11.0 06:20:28 10° S 06:27:46 26° SE 06:35:01 10° ENE visible
09 Oct 10.9 05:58:59 10° S 06:06:04 25° SE 06:13:06 10° E visible
10 Oct 10.9 05:37:31 10° S 05:44:23 23° SE 05:51:10 10° E visible
11 Oct 10.9 05:16:06 10° S 05:22:41 22° SE 05:29:14 10° E visible
12 Oct 10.9 04:54:41 10° S 05:01:00 20° SE 05:07:16 10° E visible
13 Oct 10.9 04:33:19 10° SSE 04:39:20 19° SE 04:45:16 10° E visible
13 Oct 9.5 06:33:44 10° SW 06:42:55 64° SE 06:52:03 10° ENE visible
14 Oct 10.9 04:11:58 10° SSE 04:17:39 18° SE 04:23:15 10° E visible
14 Oct 9.5 06:12:01 10° SW 06:21:11 61° SE 06:30:15 10° ENE visible
15 Oct 10.9 03:50:41 10° SSE 03:55:57 16° SE 04:01:11 10° E visible
15 Oct 9.5 05:50:19 10° SW 05:59:26 58° SE 06:08:28 10° ENE visible
16 Oct 10.9 03:29:47 11° SSE 03:34:17 15° SE 03:39:03 10° E visible
16 Oct 9.5 05:28:37 10° SW 05:37:42 56° SE 05:46:41 10° ENE visible
